Weather History for KDTS - June, 2014

Change the Weather History Date:

Monday, June 9, 2014

  Actual Average Record
Temperature  
Mean Temperature 84 °F -  
Max Temperature 89 °F 83 °F 91 °F (2006)
Min Temperature 81 °F 71 °F 66 °F (1997)
Cooling Degree Days 20    
Growing Degree Days 34 (Base 50)    
Moisture  
Dew Point 75 °F    
Average Humidity 74    
Maximum Humidity 85    
Minimum Humidity 65    
Precipitation  
Precipitation 0.00 in - - ()
Sea Level Pressure  
Sea Level Pressure 29.93 in    
Wind  
Wind Speed 6 mph (SW)    
Max Wind Speed 10 mph    
Max Gust Speed 20 mph    
Visibility 10 miles    
Events      
Averages and records for this station are not official NWS values.
T = Trace of Precipitation, MM = Missing Value Source: NWS Daily Summary

Daily Weather History Graph

Daily Weather History Graph

Search for Another Location

Airport or City:

Trip Planner

Search our weather history database for the weather conditions in past years. The results will help you decide how hot, cold, wet, or windy it might be!

Date:

Astronomy

Jun. 09, 2014 Rise Set
Actual Time 5:43 AM CDT 7:47 PM CDT
Civil Twilight 5:15 AM CDT 8:14 PM CDT
Nautical Twilight 4:42 AM CDT 8:48 PM CDT
Astronomical Twilight 4:06 AM CDT 9:23 PM CDT
Moon 4:20 PM CDT (6/9) 2:55 AM CDT (6/9)
Length of Visible Light 14h 58m
Length of Day
14h 03m
Waxing Gibbous, 85% of the Moon is Illuminated
Jun 9
Waxing Gibbous
Jun 12
Full
Jun 19
Last Quarter
Jun 27
New
Jul 5
First Quarter

Hourly Weather History & Observations

Time (CDT) Temp. Heat Index Dew Point Humidity Pressure Visibility Wind Dir Wind Speed Gust Speed Precip Events Conditions
12:53 AM 82.0 °F 90.2 °F 77.0 °F 85% 29.90 in 10.0 mi SW 8.1 mph 19.6 mph N/A   Clear
1:53 AM 82.0 °F 89.4 °F 75.9 °F 82% 29.90 in 10.0 mi Variable 5.8 mph - N/A   Clear
2:53 AM 82.0 °F 88.6 °F 75.0 °F 79% 29.91 in 10.0 mi WSW 6.9 mph - N/A   Partly Cloudy
3:53 AM 82.0 °F 88.6 °F 75.0 °F 79% 29.92 in 10.0 mi WSW 6.9 mph - N/A   Partly Cloudy
4:53 AM 82.0 °F 88.6 °F 75.0 °F 79% 29.93 in 10.0 mi Variable 5.8 mph - N/A   Mostly Cloudy
5:53 AM 81.0 °F 86.7 °F 75.0 °F 82% 29.93 in 10.0 mi Variable 4.6 mph - N/A   Partly Cloudy
6:53 AM 82.0 °F 88.6 °F 75.0 °F 79% 29.94 in 10.0 mi Calm Calm - N/A   Scattered Clouds
7:53 AM 84.0 °F 91.2 °F 73.9 °F 72% 29.95 in 10.0 mi Calm Calm - N/A   Clear
8:53 AM 84.9 °F 92.1 °F 73.9 °F 69% 29.96 in 10.0 mi Variable 4.6 mph - N/A   Clear
10:53 AM 86.0 °F 93.8 °F 73.9 °F 67% 29.97 in 10.0 mi Variable 4.6 mph - N/A   Clear
11:53 AM 87.1 °F 96.3 °F 75.0 °F 67% 29.96 in 10.0 mi SW 9.2 mph - N/A   Clear
12:53 PM 88.0 °F 97.5 °F 75.0 °F 65% 29.94 in 10.0 mi Variable 5.8 mph - N/A   Clear
1:53 PM 88.0 °F 97.5 °F 75.0 °F 65% 29.93 in 10.0 mi Variable 6.9 mph - N/A   Clear
2:53 PM 88.0 °F 97.5 °F 75.0 °F 65% 29.91 in 10.0 mi SW 9.2 mph - N/A   Clear
3:53 PM 88.0 °F 97.5 °F 75.0 °F 65% 29.90 in 10.0 mi South 9.2 mph - N/A   Clear
4:53 PM 87.1 °F 97.3 °F 75.9 °F 69% 29.89 in 10.0 mi SW 6.9 mph - N/A   Partly Cloudy
5:53 PM 84.9 °F 93.3 °F 75.0 °F 72% 29.90 in 10.0 mi SSW 5.8 mph - N/A   Scattered Clouds
6:53 PM 84.0 °F 91.2 °F 73.9 °F 72% 29.91 in 10.0 mi SW 10.4 mph - N/A   Partly Cloudy
7:53 PM 82.9 °F 90.2 °F 75.0 °F 77% 29.93 in 10.0 mi Variable 4.6 mph - N/A   Partly Cloudy
8:53 PM 82.9 °F 88.8 °F 73.0 °F 72% 29.94 in 10.0 mi SW 9.2 mph - N/A   Clear
9:53 PM 82.0 °F 87.4 °F 73.0 °F 74% 29.95 in 10.0 mi SW 8.1 mph - N/A   Clear
10:53 PM 82.0 °F 87.9 °F 73.9 °F 76% 29.96 in 10.0 mi SW 8.1 mph - N/A   Clear
11:53 PM 82.0 °F 88.6 °F 75.0 °F 79% 29.97 in 10.0 mi SW 6.9 mph - N/A   Clear